sat.trackr.live / text

‹ back to catalog

STARLINK-5032

NORAD 53895 · 2022-119K

PAYLOAD ACTIVE UNKNOWN

§ Identity

Operator
Country
US
Launch date
2022-09-24
Launch site
AFETR
Launch vehicle
Mass (kg)
RCS (m²)

Purposes: comms

External: N2YO · Heavens-Above · Gunter

§ Orbital elements

Epoch: 2026-05-25T04:00:03.998880Z

Period
91.80 min
Inclination
53.2169°
Eccentricity
0.0000567
Mean motion
15.68669201 rev/d
Perigee alt
362.3 km
Apogee alt
363.1 km
Semi-major
6,740.8 km
B*
1.4123e-3
RAAN
325.6279°
Arg perigee
73.6370°
Mean anomaly
345.5396°
Rev number
578

§ Raw data

STARLINK-50321 53895U 22119K   26145.16671295  .00166656  00000+0  14123-2 0  99922 53895  53.2169 325.6279 0000567  73.6370 345.5396 15.68669201  5785

JSON: /api/v1/satellites/53895 · /tle

For live sub-satellite position, see the globe view (requires WebGL).

§ Visibility from observer

Set your observer location to see the next 7 days of passes ≥ 10°. The values pass through the URL so the page stays shareable.

No JS? Fill the form by hand. The geolocation button needs JavaScript.